Location: Casco Volunteer Fire Department
(44.5576°N, 87.6146°W)
Time: 04:07:46
(UTC+00:00)

DMSP B5D1-3 - Pass Details

Date: 22 January 2026
Orbit: 758 x 772 km, 98.5° (Epoch: 10 February)

Event Time Altitude Azimuth Distance (km) Brightness Sun altitude
Rises 11:57:46 0° 173° (S) 3,208 8.0 -14.4°
Reaches altitude 10° 12:00:04 10° 176° (S) 2,285 7.2 -14.0°
Maximum altitude 12:05:04 64° 258° (WSW) 840 4.5 -13.1°
Drops below altitude 10° 12:10:05 10° 340° (NNW) 2,298 6.6 -12.2°
Sets 12:12:26 0° 344° (NNW) 3,228 7.4 -11.8°
